Content
SEND FEEDBACK

Daily
Averages
Monthly
Summary
United States of America

ROCK HILL, NEW YORK


Home > North America > United States > New York
Elevation: 1260 feet     Latitude: 41 35N     Longitude: 074 37W

WEATHER
 
SELECT A DAY
Number of Records: 454,725;   Date Range: 1/1/95 - 12/19/14
 
SHARE

PRINT THIS DATA

[ ← Previous Day ]
WEATHER ALMANAC - MAY 13, 2014
[ Next Day → ]
[ °C ]   °F
Weather ElementAverageHighLow
Temperature62.3 °F73.4 °F (3:15 pm)53.6 °F (5:35 am)
Dewpoint50 °F57.2 °F (2:15 am)42.8 °F (9:35 pm)
Humidity66.3 %100 % (4:35 am)41 % (4:15 pm)
Barometer30.18 in30.27 in (10:15 pm)30.08 in (2:35 am)
Wind Speed8.1 mph15 mph (5:15 pm)
Wind Gust19.6 mph (2:35 pm)
Weather ElementAverage
Visibility9.7 mi
Wind DirectionESE (118.7 °)

Weather ElementTotal
Precipitation---
Heating Degree Days1.5 (Base 65)
Growing Degree Days13.5 (Base 50)
Averaged from 60 records on May 13, 2014
WEATHER CONDITIONS BREAKOUT
WIND DIRECTION BREAKOUT
WEATHER BY HOUR - MAY 13, 2014
[ °C ]   °F
Local TimeTemperatureDewpointHumidityBarometerVisibilityWind DirectionWind SpeedGust SpeedPrecipitationEventsConditions
12:35 AM60.8 °F55.4 °F82 %30.10 in10.0 miWSW (240°)3.5 mphScattered Clouds
12:55 AM60.8 °F55.4 °F82 %30.10 in10.0 miWSW (250°)3.5 mphClear
1:15 AM60.8 °F55.4 °F82 %30.10 in10.0 miWest (280°)3.5 mphClear
1:35 AM57.2 °F53.6 °F88 %30.10 in10.0 miCalmClear
2:15 AM59.0 °F57.2 °F94 %30.09 in10.0 miCalmScattered Clouds
2:35 AM60.8 °F55.4 °F82 %30.08 in10.0 miWNW (290°)3.5 mphMostly Cloudy
2:55 AM60.8 °F55.4 °F82 %30.09 in10.0 miCalmPartly Cloudy
3:35 AM59.0 °F55.4 °F88 %30.10 in10.0 miCalmClear
3:55 AM57.2 °F55.4 °F94 %30.11 in10.0 miCalmClear
4:15 AM55.4 °F53.6 °F94 %30.11 in8.0 miEast (100°)4.6 mphClear
4:35 AM55.4 °F55.4 °F100 %30.11 in5.0 miEast (100°)4.6 mphClear
4:55 AM55.4 °F53.6 °F94 %30.11 in9.0 miCalmClear
5:15 AM55.4 °F53.6 °F94 %30.11 in8.0 miCalmClear
5:35 AM53.6 °F53.6 °F100 %30.12 in2.0 miEast (80°)4.6 mphScattered Clouds
5:55 AM55.4 °F55.4 °F100 %30.13 in10.0 miENE (70°)5.8 mphPartly Cloudy
6:15 AM55.4 °F51.8 °F88 %30.13 in10.0 miEast (80°)4.6 mphClear
6:35 AM57.2 °F51.8 °F82 %30.14 in10.0 miEast (90°)4.6 mphClear
6:55 AM57.2 °F50.0 °F77 %30.15 in10.0 miNorthPartly Cloudy
7:15 AM59.0 °F50.0 °F72 %30.15 in10.0 miEast (100°)6.9 mphMostly Cloudy
7:35 AM59.0 °F48.2 °F67 %30.16 in10.0 miEast (100°)8.1 mphMostly Cloudy
7:55 AM60.8 °F48.2 °F63 %30.17 in10.0 miEast (90°)11.5 mphPartly Cloudy
8:15 AM60.8 °F48.2 °F63 %30.18 in10.0 miEast (90°)8.1 mphScattered Clouds
9:15 AM60.8 °F51.8 °F72 %30.21 in10.0 miEast (100°)9.2 mphMostly Cloudy
9:35 AM60.8 °F51.8 °F72 %30.21 in10.0 miESE (120°)9.2 mphMostly Cloudy
9:55 AM60.8 °F51.8 °F72 %30.21 in10.0 miESE (110°)9.2 mphMostly Cloudy
10:15 AM60.8 °F51.8 °F72 %30.22 in10.0 miSE (130°)10.4 mphOvercast
10:55 AM62.6 °F51.8 °F68 %30.21 in10.0 miESE (110°)10.4 mph16.1 mphClear
12:35 PM66.2 °F51.8 °F60 %30.21 in10.0 miEast (100°)11.5 mphClear
12:55 PM66.2 °F51.8 °F60 %30.20 in10.0 miEast (90°)11.5 mphClear
1:35 PM69.8 °F51.8 °F53 %30.20 in10.0 miSSE (160°)9.2 mphClear
1:55 PM71.6 °F53.6 °F53 %30.21 in10.0 miSSE (160°)9.2 mphClear
2:15 PM71.6 °F53.6 °F53 %30.20 in10.0 miSSE (150°)9.2 mph17.3 mphClear
2:35 PM71.6 °F53.6 °F53 %30.19 in10.0 miSSE (160°)11.5 mph19.6 mphClear
2:55 PM71.6 °F53.6 °F53 %30.19 in10.0 miSouth (170°)11.5 mph18.4 mphClear
3:15 PM73.4 °F51.8 °F47 %30.19 in10.0 miESE (110°)12.7 mphClear
3:35 PM71.6 °F51.8 °F50 %30.19 in10.0 miESE (120°)11.5 mphClear
3:55 PM71.6 °F51.8 °F50 %30.19 in10.0 miSE (130°)11.5 mphMostly Cloudy
4:15 PM73.4 °F48.2 °F41 %30.19 in10.0 miSouth (170°)12.7 mphScattered Clouds
4:35 PM73.4 °F48.2 °F41 %30.19 in10.0 miSSW (200°)9.2 mphPartly Cloudy
4:55 PM71.6 °F48.2 °F43 %30.19 in10.0 miSSE (150°)13.8 mph19.6 mphClear
5:15 PM69.8 °F48.2 °F46 %30.19 in10.0 miSSE (150°)15.0 mphClear
5:35 PM69.8 °F48.2 °F46 %30.19 in10.0 miSE (130°)15.0 mph19.6 mphClear
5:55 PM69.8 °F46.4 °F43 %30.19 in10.0 miSE (140°)15.0 mphClear
6:15 PM66.2 °F46.4 °F49 %30.19 in10.0 miSE (140°)15.0 mphClear
6:35 PM68.0 °F46.4 °F46 %30.19 in10.0 miSSE (150°)12.7 mphClear
6:55 PM66.2 °F46.4 °F49 %30.20 in10.0 miSE (130°)13.8 mphClear
7:15 PM64.4 °F46.4 °F52 %30.21 in10.0 miSE (140°)11.5 mphClear
7:35 PM64.4 °F46.4 °F52 %30.21 in10.0 miSSE (150°)11.5 mphClear
7:55 PM64.4 °F44.6 °F49 %30.23 in10.0 miSE (140°)13.8 mphClear
8:15 PM62.6 °F44.6 °F52 %30.23 in10.0 miSE (140°)12.7 mphClear
8:35 PM60.8 °F44.6 °F55 %30.23 in10.0 miSE (130°)9.2 mphClear
8:55 PM60.8 °F44.6 °F55 %30.23 in10.0 miSE (130°)10.4 mphClear
9:15 PM59.0 °F44.6 °F59 %30.24 in10.0 miSE (130°)9.2 mphClear
9:35 PM59.0 °F42.8 °F55 %30.25 in10.0 miSE (130°)10.4 mphClear
9:55 PM57.2 °F42.8 °F59 %30.26 in10.0 miSE (140°)6.9 mphClear
10:15 PM55.4 °F42.8 °F63 %30.27 in10.0 miSE (130°)5.8 mphClear
10:55 PM53.6 °F42.8 °F67 %30.27 in10.0 miSE (140°)6.9 mphClear
11:15 PM53.6 °F42.8 °F67 %30.27 in10.0 miSE (130°)6.9 mphClear
11:35 PM53.6 °F42.8 °F67 %30.27 in10.0 miESE (110°)3.5 mphClear
11:55 PM53.6 °F42.8 °F67 %30.27 in10.0 miSE (140°)4.6 mphClear
Hourly data recorded from KMSV, located miles away from Rock Hill, New York







STORIES FROM OUR PARTNERS